GOES 1 (SMS-C) 1 08366U 75100A 25186.39404568 -.00000177 00000-0 00000-0 0 9993 2 08366 5.4913 281.7482 0002972 319.3389 98.7160 1.00244624181593 GOES 2 1 10061U 77048A 25186.47637225 -.00000248 00000-0 00000-0 0 9997 2 10061 7.2443 296.2351 0011216 49.6611 266.2163 0.99402281 42823 GOES 3 1 10953U 78062A 25186.46788337 .00000110 00000-0 00000-0 0 9991 2 10953 7.6857 301.7722 0001084 220.0752 161.7335 0.99359353125095 GOES 4 1 11964U 80074A 25186.23655752 -.00000283 00000-0 00000-0 0 9991 2 11964 8.7399 305.5397 0032197 102.9288 95.7964 0.99232824123996 GOES 5 1 12472U 81049A 25186.40973512 -.00000262 00000-0 00000-0 0 9992 2 12472 9.9803 317.9391 0001880 286.2566 118.4298 1.00292271119370 GOES 6 1 14050U 83041A 25186.40351162 -.00000243 00000-0 00000-0 0 9990 2 14050 10.7443 323.4809 0002704 207.7071 182.5144 1.00263480212540 GOES 7 1 17561U 87022A 25186.10319265 .00000047 00000-0 00000-0 0 9999 2 17561 13.2424 340.0827 0002392 77.8205 94.4612 0.99905561123496 GOES 8 1 23051U 94022A 25186.47726646 -.00000075 00000-0 00000-0 0 9995 2 23051 14.1316 16.2736 0005367 67.7870 290.2790 0.98903906120691 GOES 9 1 23581U 95025A 25185.94709007 -.00000213 00000-0 00000-0 0 9994 2 23581 13.6513 17.0385 0006685 149.7619 222.5596 0.98800821109339 GOES 10 1 24786U 97019A 25186.21126072 -.00000085 00000-0 00000-0 0 9990 2 24786 12.7149 23.5529 0029172 226.9113 125.8888 0.99126723102624 GOES 11 1 26352U 00022A 25186.54794944 -.00000053 00000-0 00000-0 0 9999 2 26352 11.0655 49.7485 0002075 211.0789 135.1108 0.99040489 49035 GOES 12 1 26871U 01031A 25186.45537429 .00000016 00000-0 00000-0 0 9997 2 26871 11.5504 40.1402 0004745 306.1135 309.9920 0.99137770 87327 GOES 13 1 29155U 06018A 25186.29975428 -.00000062 00000-0 00000-0 0 9994 2 29155 3.6288 80.6947 0060020 267.2926 146.5403 0.98787599 39824 GOES 14 1 35491U 09033A 25186.54334478 -.00000053 00000-0 00000-0 0 9996 2 35491 0.7827 87.7671 0002668 64.5553 218.9090 1.00274526 3115 GOES 15 1 36411U 10008A 25186.90031282 .00000055 00000-0 00000+0 0 9990 2 36411 0.3828 85.3424 0002885 106.6005 117.5624 1.00272766 56160 GOES 16 1 41866U 16071A 25186.82945815 -.00000074 00000-0 00000+0 0 9995 2 41866 0.0498 229.5894 0001069 272.0079 336.3425 1.00272286 31626